"2010-09-07 00:00:00",138541,5.934,128.4,3.276,0.52,16.15,106.9595,17.09,18.05,12.12,0,110.7,13.28,17.90,90.4
"2010-09-07 00:00:30",138542,5.868,124,2.777,0.224,16.1,106.9595,17.09,18.03,12.22,0,110.7,13.28,17.90,86.0
"2010-09-07 00:01:00",138543,6.484,123.5,3.126,0.223,16.07,106.9595,17.09,18.01,12.14,0,110.7,13.28,17.90,85.5
"2010-09-07 00:01:30",138544,6.661,126.2,2.944,0.401,16.12,106.9507,17.07,18,12.02,0,110.7,13.28,17.88,88.2
"2010-09-07 00:02:00",138545,6.926,123.2,4.014,0.349,16.24,106.9412,17.04,17.99,11.98,0,110.7,13.28,17.86,85.2
"2010-09-07 00:02:30",138546,7.434,122.5,3.755,0.478,16.34,106.9383,17.04,17.97,12.08,0,110.7,13.28,17.85,84.5
"2010-09-07 00:03:00",138547,7.27,119.7,1.767,0.133,16.47,106.9406,17.04,17.97,11.8,0,110.7,13.28,17.85,81.7
"2010-09-07 00:03:30",138548,7.796,118.9,5.126,0.473,16.44,106.9533,17.08,17.97,11.72,0,110.7,13.28,17.89,80.9
"2010-09-07 00:04:00",138549,7.779,125.6,4.203,0.368,16.45,106.9572,17.09,17.97,11.93,0,110.7,13.28,17.90,87.6
"2010-09-07 00:04:30",138550,7.905,121.1,1.209,0.19,16.4,106.9578,17.09,17.98,11.77,0,110.7,13.27,17.90,83.1
"2010-09-07 00:05:00",138551,8.16,120.7,1.643,0.289,16.4,106.9555,17.08,17.99,11.73,0,110.7,13.27,17.89,82.7
"2010-09-07 00:05:30",138552,8.15,123.9,3.525,0.449,16.48,106.9488,17.06,17.99,11.81,0,110.7,13.28,17.88,85.9
"2010-09-07 00:06:00",138553,7.738,126.4,2.926,0.404,16.48,106.9412,17.04,17.97,11.9,0,110.7,13.27,17.86,88.4
"2010-09-07 00:06:30",138554,7.497,127.2,2.928,0.248,16.41,106.9383,17.04,17.97,12.02,0,110.7,13.27,17.85,89.2
"2010-09-07 00:07:00",138555,7.683,128.5,1.492,0.347,16.45,106.9305,17.02,17.97,11.9,0,110.7,13.28,17.83,90.5
"2010-09-07 00:07:30",138556,7.616,131.4,6.686,0.303,16.46,106.9257,17,17.96,11.9,0,110.7,13.27,17.82,93.4
"2010-09-07 00:08:00",138557,8.09,137.6,3.093,0.242,16.48,106.9257,17,17.95,12.17,0,110.7,13.27,17.82,99.6
"2010-09-07 00:08:30",138558,7.227,134.5,4.137,0.273,16.43,106.9257,17,17.95,12.18,0,110.6,13.27,17.82,96.5
"2010-09-07 00:09:00",138559,7.759,126.9,3.493,0.36,16.46,106.9257,17,17.93,11.87,0,110.7,13.27,17.82,88.9
"2010-09-07 00:09:30",138560,6.965,133.8,2.581,0.337,16.48,106.9257,17,17.94,12.15,0,110.7,13.27,17.82,95.8
"2010-09-07 00:10:00",138561,6.699,124.3,5.346,0.292,16.55,106.9257,17,17.94,12.31,0,110.7,13.27,17.82,86.3
"2010-09-07 00:10:30",138562,7.215,125.6,4.23,0.188,16.58,106.9257,17,17.93,12.32,0,110.7,13.27,17.82,87.6
"2010-09-07 00:11:00",138563,6.648,123.7,4.816,0.398,16.53,106.9257,17,17.91,12.39,0,110.6,13.27,17.82,85.7
"2010-09-07 00:11:30",138564,6.527,125.6,3.726,0.296,16.51,106.9257,17,17.91,12.23,0,110.7,13.27,17.82,87.6
"2010-09-07 00:12:00",138565,7.27,126.1,4.576,0.274,16.46,106.9257,17,17.91,11.93,0,110.7,13.27,17.82,88.1
"2010-09-07 00:12:30",138566,7.441,128.7,5.357,0.239,16.47,106.9257,17,17.91,12.03,0,110.7,13.27,17.82,90.7
"2010-09-07 00:13:00",138567,7.178,131.8,5.254,0.503,16.46,106.9257,17,17.9,12.15,0,110.7,13.27,17.82,93.8
"2010-09-07 00:13:30",138568,7.597,136.8,1.851,0.274,16.34,106.9217,16.99,17.9,12.41,0,110.7,13.27,17.81,98.8
"2010-09-07 00:14:00",138569,7.878,137.9,2.221,0.271,16.39,106.9029,16.95,17.88,12.21,0,110.7,13.27,17.76,99.9
"2010-09-07 00:14:30",138570,7.577,141.2,1.997,0.287,16.35,106.8927,16.92,17.87,12.57,0,110.6,13.27,17.73,103.2
"2010-09-07 00:15:00",138571,7.46,138.1,2.622,0.356,16.33,106.8919,16.92,17.87,12.04,0,110.6,13.27,17.73,100.1
"2010-09-07 00:15:30",138572,7.608,135.1,2.379,0.206,16.35,106.8919,16.92,17.85,11.8,0,110.7,13.27,17.73,97.1
"2010-09-07 00:16:00",138573,7.394,127.7,2.489,0.472,16.46,106.8919,16.92,17.86,11.71,0,110.7,13.27,17.73,89.7
"2010-09-07 00:16:30",138574,7.419,123.7,3.06,0.358,16.43,106.8919,16.92,17.86,11.65,0,110.6,13.27,17.73,85.7
"2010-09-07 00:17:00",138575,7.103,126.7,3.314,0.522,16.41,106.8919,16.92,17.85,11.64,0,110.7,13.27,17.73,88.7
"2010-09-07 00:17:30",138576,7.525,132.1,1.933,0.259,16.34,106.8919,16.92,17.86,11.65,0,110.7,13.27,17.73,94.1
"2010-09-07 00:18:00",138577,7.38,130.9,1.77,0.202,16.35,106.8919,16.92,17.86,11.65,0,110.7,13.27,17.73,92.9
"2010-09-07 00:18:30",138578,7.475,130.6,1.24,0.104,16.34,106.8919,16.92,17.85,11.58,0,110.7,13.27,17.73,92.6
"2010-09-07 00:19:00",138579,7.612,131.2,0.925,0.167,16.36,106.8919,16.92,17.85,11.55,0,110.7,13.27,17.73,93.2
"2010-09-07 00:19:30",138580,7.326,127.9,2.57,0.125,16.42,106.8919,16.92,17.85,11.57,0,110.7,13.27,17.73,89.9
"2010-09-07 00:20:00",138581,7.41,128.2,1.508,0.169,16.38,106.8919,16.92,17.84,11.59,0,110.7,13.28,17.73,90.2
"2010-09-07 00:20:30",138582,7.263,123.9,2.896,0.36,16.46,106.8919,16.92,17.83,11.56,0,110.6,13.27,17.73,85.9
"2010-09-07 00:21:00",138583,7.232,122.7,2.09,0.224,16.47,106.8919,16.92,17.85,11.56,0,110.6,13.27,17.73,84.7
"2010-09-07 00:21:30",138584,7.308,123.5,1.713,0.267,16.54,106.8919,16.92,17.83,11.55,0,110.7,13.27,17.73,85.5
"2010-09-07 00:22:00",138585,6.976,124,1.059,0.142,16.57,106.8919,16.92,17.83,11.57,0,110.6,13.27,17.73,86.0
"2010-09-07 00:22:30",138586,7.236,125.6,2.58,0.292,16.53,106.8922,16.92,17.82,11.63,0,110.6,13.27,17.73,87.6
"2010-09-07 00:23:00",138587,7.228,126.2,3.12,0.229,16.58,106.8871,16.91,17.82,11.72,0,110.6,13.27,17.72,88.2
"2010-09-07 00:23:30",138588,6.879,127.9,1.849,0.166,16.59,106.8812,16.89,17.82,11.72,0,110.6,13.27,17.70,89.9
"2010-09-07 00:24:00",138589,7.398,131,0.944,0.2,16.6,106.8691,16.86,17.8,11.69,0,110.6,13.28,17.67,93.0
"2010-09-07 00:24:30",138590,7.201,129.9,0.657,0.138,16.57,106.8587,16.83,17.8,11.6,0,110.6,13.27,17.64,91.9
"2010-09-07 00:25:00",138591,7.136,130.8,0.703,0.081,16.69,106.8581,16.83,17.79,11.6,0,110.6,13.28,17.64,92.8
"2010-09-07 00:25:30",138592,7.06,129.5,1.188,0.096,16.68,106.8584,16.83,17.76,11.61,0,110.6,13.28,17.64,91.5
"2010-09-07 00:26:00",138593,6.804,126.6,1.529,0.158,16.7,106.8584,16.83,17.78,11.61,0,110.6,13.27,17.64,88.6
"2010-09-07 00:26:30",138594,6.705,127.7,1.237,0.201,16.71,106.8587,16.83,17.77,11.65,0,110.6,13.27,17.64,89.7
"2010-09-07 00:27:00",138595,7.146,128.2,0.654,0.075,16.62,106.859,16.83,17.75,11.64,0,110.6,13.27,17.64,90.2
"2010-09-07 00:27:30",138596,7.151,126.3,1.019,0.076,16.74,106.8605,16.84,17.75,11.65,0,110.6,13.27,17.65,88.3
"2010-09-07 00:28:00",138597,7.233,125.8,0.421,0.039,16.83,106.8609,16.84,17.75,11.65,0,110.6,13.27,17.65,87.8
"2010-09-07 00:28:30",138598,7.304,127.7,2.379,0.177,16.67,106.8532,16.82,17.75,11.87,0,110.6,13.27,17.63,89.7
"2010-09-07 00:29:00",138599,7.354,126.9,1.325,0.283,16.67,106.837,16.78,17.74,11.85,0,110.6,13.27,17.59,88.9
"2010-09-07 00:29:30",138600,7.322,125.1,1.461,0.079,16.71,106.8306,16.76,17.74,11.74,0,110.6,13.27,17.57,87.1
"2010-09-07 00:30:00",138601,7.074,127.6,2.247,0.21,16.6,106.8327,16.77,17.7,11.95,0,110.6,13.27,17.58,89.6
"2010-09-07 00:30:30",138602,6.92,124.2,0.926,0.146,16.75,106.833,16.77,17.71,11.79,0,110.6,13.27,17.58,86.2
"2010-09-07 00:31:00",138603,6.918,121.8,1.127,0.091,16.8,106.8363,16.78,17.7,11.75,0,110.6,13.27,17.59,83.8
"2010-09-07 00:31:30",138604,6.963,122.8,1.542,0.115,16.73,106.8363,16.78,17.69,11.78,0,110.6,13.27,17.59,84.8
"2010-09-07 00:32:00",138605,7.23,123,1.038,0.259,16.64,106.8385,16.78,17.68,12.01,0,110.6,13.28,17.59,85.0
"2010-09-07 00:32:30",138606,6.75,122.2,1.441,0.14,16.73,106.8403,16.79,17.67,11.9,0,110.6,13.28,17.60,84.2
"2010-09-07 00:33:00",138607,6.62,122.3,0.8,0.082,16.65,106.8406,16.79,17.66,11.67,0,110.6,13.28,17.60,84.3
"2010-09-07 00:33:30",138608,6.963,124.5,1.032,0.186,16.71,106.8318,16.76,17.67,11.87,0,110.6,13.28,17.57,86.5
"2010-09-07 00:34:00",138609,6.882,124.6,0.74,0.173,16.73,106.8209,16.74,17.66,11.76,0,110.6,13.28,17.55,86.6
"2010-09-07 00:34:30",138610,7.013,122.8,1.033,0.12,16.79,106.8144,16.72,17.65,11.72,0,110.6,13.28,17.53,84.8
"2010-09-07 00:35:00",138611,7.113,122.8,1.426,0.192,16.73,106.8143,16.72,17.64,11.71,0,110.6,13.29,17.53,84.8
"2010-09-07 00:35:30",138612,7.076,123.4,1.298,0.1,16.78,106.8158,16.72,17.63,11.73,0,110.6,13.29,17.53,85.4
"2010-09-07 00:36:00",138613,6.848,123.5,1.126,0.105,16.71,106.817,16.73,17.63,11.74,0,110.6,13.29,17.54,85.5
"2010-09-07 00:36:30",138614,6.844,122.5,0.564,0.16,16.73,106.8176,16.73,17.62,11.66,0,110.6,13.29,17.54,84.5
"2010-09-07 00:37:00",138615,6.745,122.4,1.057,0.068,16.61,106.82,16.73,17.62,11.62,0,110.6,13.29,17.54,84.4
"2010-09-07 00:37:30",138616,6.94,124.7,0.703,0.092,16.65,106.8194,16.73,17.62,11.7,0,110.6,13.29,17.54,86.7
"2010-09-07 00:38:00",138617,6.918,125.5,1.362,0.136,16.71,106.8218,16.74,17.6,11.72,0,110.6,13.29,17.55,87.5
"2010-09-07 00:38:30",138618,7.292,124.4,1.025,0.223,16.67,106.8239,16.74,17.6,11.71,0,110.6,13.29,17.55,86.4
"2010-09-07 00:39:00",138619,7.214,122.1,2.19,0.151,16.75,106.8203,16.73,17.61,11.71,0,110.6,13.29,17.55,84.1
"2010-09-07 00:39:30",138620,7.329,120,1.905,0.191,16.74,106.8119,16.71,17.58,11.66,0,110.6,13.29,17.52,82.0
"2010-09-07 00:40:00",138621,7.139,118.4,1.768,0.098,16.75,106.8063,16.7,17.58,11.52,0,110.6,13.29,17.51,80.4
"2010-09-07 00:40:30",138622,6.961,119.1,1.286,0.172,16.77,106.808,16.7,17.58,11.39,0,110.6,13.29,17.51,81.1
"2010-09-07 00:41:00",138623,7.329,120.4,1.5,0.185,16.75,106.8024,16.69,17.58,11.51,0,110.6,13.29,17.50,82.4
"2010-09-07 00:41:30",138624,6.871,122.3,1.359,0.269,16.75,106.8001,16.68,17.58,11.63,0,110.6,13.29,17.49,84.3
"2010-09-07 00:42:00",138625,6.779,122.7,1.288,0.249,16.71,106.7959,16.67,17.57,11.64,0,110.6,13.29,17.48,84.7
"2010-09-07 00:42:30",138626,7.01,119.4,0.974,0.269,16.82,106.7937,16.67,17.56,11.55,0,110.6,13.28,17.48,81.4
"2010-09-07 00:43:00",138627,7.034,121.5,1.381,0.214,16.78,106.7934,16.67,17.57,11.57,0,110.6,13.28,17.48,83.5
"2010-09-07 00:43:30",138628,6.778,122.3,0.854,0.215,16.75,106.7931,16.66,17.57,11.64,0,110.6,13.28,17.48,84.3
"2010-09-07 00:44:00",138629,6.545,119.4,2.926,0.095,16.78,106.7928,16.66,17.57,11.56,0,110.6,13.28,17.47,81.4
"2010-09-07 00:44:30",138630,6.54,122.1,1.111,0.081,16.75,106.7928,16.66,17.55,11.57,0,110.6,13.28,17.47,84.1
"2010-09-07 00:45:00",138631,6.424,121,1.265,0.159,16.82,106.7928,16.66,17.56,11.52,0,110.6,13.28,17.47,83.0
"2010-09-07 00:45:30",138632,6.253,120.9,1.444,0.149,16.85,106.7928,16.66,17.56,11.45,0,110.6,13.28,17.47,82.9
"2010-09-07 00:46:00",138633,6.396,120.5,2.633,0.208,16.85,106.7934,16.67,17.58,11.49,0,110.6,13.28,17.48,82.5
"2010-09-07 00:46:30",138634,5.895,118.5,0.876,0.143,16.8,106.7937,16.67,17.57,11.46,0,110.6,13.28,17.48,80.5
"2010-09-07 00:47:00",138635,6.013,119.7,1.164,0.183,16.83,106.7957,16.67,17.57,11.45,0,110.6,13.28,17.48,81.7
"2010-09-07 00:47:30",138636,6.13,119.6,0.938,0.126,16.85,106.7979,16.68,17.58,11.43,0,110.6,13.28,17.49,81.6
"2010-09-07 00:48:00",138637,6.213,117.2,1.102,0.073,16.82,106.7979,16.68,17.58,11.45,0,110.6,13.29,17.49,79.2
"2010-09-07 00:48:30",138638,6.086,120.7,2.137,0.096,16.73,106.7979,16.68,17.58,11.46,0,110.6,13.29,17.49,82.7
"2010-09-07 00:49:00",138639,6.174,124.8,1.919,0.101,16.74,106.7942,16.67,17.58,11.44,0,110.6,13.29,17.48,86.8
"2010-09-07 00:49:30",138640,6.079,124.6,0.998,0.094,16.79,106.7928,16.66,17.57,11.43,0,110.6,13.29,17.47,86.6
"2010-09-07 00:50:00",138641,6.124,125.5,0.761,0.12,16.75,106.7928,16.66,17.58,11.4,0,110.6,13.29,17.47,87.5
"2010-09-07 00:50:30",138642,6.279,125.9,1.669,0.175,16.8,106.7928,16.66,17.57,11.36,0,110.6,13.29,17.47,87.9
"2010-09-07 00:51:00",138643,6.206,123.8,0.953,0.094,16.79,106.7928,16.66,17.57,11.38,0,110.6,13.29,17.47,85.8
"2010-09-07 00:51:30",138644,6.217,123.3,0.647,0.066,16.82,106.7928,16.66,17.55,11.37,0,110.6,13.29,17.47,85.3
"2010-09-07 00:52:00",138645,6.117,123,1.149,0.076,16.82,106.7928,16.66,17.55,11.33,0,110.6,13.29,17.47,85.0
"2010-09-07 00:52:30",138646,5.981,122.3,1.252,0.072,16.84,106.7928,16.66,17.56,11.38,0,110.6,13.29,17.47,84.3
"2010-09-07 00:53:00",138647,5.89,121.9,0.783,0.042,16.83,106.7928,16.66,17.55,11.38,0,110.6,13.29,17.47,83.9
"2010-09-07 00:53:30",138648,5.797,122.2,0.814,0.044,16.93,106.7928,16.66,17.56,11.39,0,110.6,13.29,17.47,84.2
"2010-09-07 00:54:00",138649,5.961,122.1,0.93,0.041,16.79,106.7928,16.66,17.55,11.36,0,110.6,13.29,17.47,84.1
"2010-09-07 00:54:30",138650,5.897,122.5,0.983,0.04,16.83,106.7926,16.66,17.55,11.35,0,110.6,13.29,17.47,84.5
"2010-09-07 00:55:00",138651,5.779,120.2,1.29,0.112,16.89,106.7914,16.66,17.55,11.37,0,110.6,13.3,17.47,82.2
"2010-09-07 00:55:30",138652,5.73,120,1.001,0.093,16.91,106.7892,16.65,17.55,11.37,0,110.6,13.3,17.47,82.0
"2010-09-07 00:56:00",138653,5.614,120.6,1.192,0.111,16.94,106.7914,16.66,17.56,11.35,0,110.6,13.3,17.47,82.6
"2010-09-07 00:56:30",138654,5.591,123,1.134,0.066,16.89,106.79,16.66,17.54,11.3,0,110.6,13.3,17.47,85.0
"2010-09-07 00:57:00",138655,5.643,122.7,0.701,0.053,16.93,106.7844,16.64,17.53,11.23,0,110.6,13.3,17.45,84.7
"2010-09-07 00:57:30",138656,5.576,122.5,0.68,0.092,16.92,106.7804,16.63,17.54,11.26,0,110.6,13.3,17.44,84.5
"2010-09-07 00:58:00",138657,5.684,123.5,0.991,0.152,16.89,106.7709,16.61,17.55,11.26,0,110.6,13.3,17.42,85.5
"2010-09-07 00:58:30",138658,5.664,121.6,1.558,0.101,16.91,106.7638,16.59,17.55,11.26,0,110.6,13.3,17.40,83.6
"2010-09-07 00:59:00",138659,5.535,123.4,1.283,0.099,16.87,106.7616,16.58,17.54,11.25,0,110.6,13.3,17.39,85.4
"2010-09-07 00:59:30",138660,5.539,121.7,1.614,0.133,16.93,106.7599,16.58,17.53,11.25,0,110.6,13.29,17.39,83.7
"2010-09-07 01:00:00",138661,5.744,124.3,0.999,0.149,16.89,106.759,16.58,17.53,11.24,0,110.6,13.29,17.39,86.3
"2010-09-07 01:00:30",138662,5.754,126.6,1.016,0.114,16.88,106.7617,16.58,17.52,11.23,0,110.6,13.29,17.39,88.6
"2010-09-07 01:01:00",138663,5.923,128,1.265,0.082,16.86,106.762,16.59,17.53,11.24,0,110.6,13.29,17.40,90.0
"2010-09-07 01:01:30",138664,5.88,128.5,0.917,0.064,16.87,106.7656,16.59,17.51,11.22,0,110.6,13.29,17.40,90.5
"2010-09-07 01:02:00",138665,6.06,129.1,0.986,0.048,16.87,106.769,16.6,17.5,11.25,0,110.6,13.29,17.41,91.1
"2010-09-07 01:02:30",138666,6.179,129.9,0.806,0.067,16.92,106.7723,16.61,17.49,11.3,0,110.6,13.29,17.42,91.9
"2010-09-07 01:03:00",138667,6.181,129.3,0.639,0.086,16.89,106.7617,16.58,17.49,11.32,0,110.6,13.29,17.39,91.3
"2010-09-07 01:03:30",138668,6.332,129.7,0.677,0.132,16.91,106.747,16.55,17.47,11.34,0,110.6,13.29,17.36,91.7
"2010-09-07 01:04:00",138669,6.47,130.4,0.628,0.046,16.84,106.7436,16.54,17.48,11.39,0,110.6,13.29,17.35,92.4
"2010-09-07 01:04:30",138670,6.495,130.3,0.744,0.066,16.81,106.7475,16.55,17.46,11.39,0,110.6,13.29,17.36,92.3
"2010-09-07 01:05:00",138671,6.528,131,0.402,0.076,16.76,106.7484,16.55,17.44,11.38,0,110.6,13.3,17.36,93.0
"2010-09-07 01:05:30",138672,6.54,131.6,0.77,0.069,16.83,106.7508,16.56,17.43,11.35,0,110.6,13.3,17.37,93.6
"2010-09-07 01:06:00",138673,6.4,132.4,0.521,0.075,16.84,106.7521,16.56,17.42,11.37,0,110.6,13.3,17.37,94.4
"2010-09-07 01:06:30",138674,6.288,132.7,0.837,0.065,16.85,106.7525,16.56,17.42,11.38,0,110.6,13.3,17.37,94.7
"2010-09-07 01:07:00",138675,6.343,132.9,0.628,0.082,16.82,106.7547,16.57,17.42,11.37,0,110.6,13.3,17.38,94.9
"2010-09-07 01:07:30",138676,6.209,132.9,0.698,0.084,16.85,106.7528,16.56,17.43,11.38,0,110.6,13.3,17.37,94.9
"2010-09-07 01:08:00",138677,6.379,133.3,0.688,0.058,16.89,106.7497,16.55,17.41,11.43,0,110.6,13.3,17.36,95.3
"2010-09-07 01:08:30",138678,6.325,133.6,0.508,0.033,16.88,106.745,16.54,17.4,11.45,0,110.6,13.3,17.35,95.6
"2010-09-07 01:09:00",138679,6.419,134.4,0.851,0.076,16.97,106.7439,16.54,17.4,11.44,0,110.6,13.3,17.35,96.4
"2010-09-07 01:09:30",138680,6.492,133,0.845,0.114,16.93,106.7388,16.53,17.41,11.4,0,110.6,13.3,17.34,95.0
"2010-09-07 01:10:00",138681,6.413,133,0.591,0.058,16.92,106.7351,16.52,17.4,11.39,0,110.6,13.3,17.33,95.0
"2010-09-07 01:10:30",138682,6.243,133.5,1.026,0.044,16.89,106.7348,16.52,17.41,11.37,0,110.6,13.3,17.33,95.5
"2010-09-07 01:11:00",138683,6.255,133.9,0.683,0.084,16.91,106.7368,16.52,17.4,11.37,0,110.6,13.31,17.33,95.9
"2010-09-07 01:11:30",138684,6.417,132.8,1.253,0.101,16.93,106.7377,16.52,17.41,11.29,0,110.6,13.31,17.33,94.8
"2010-09-07 01:12:00",138685,6.618,132.4,0.989,0.079,16.95,106.7388,16.53,17.4,11.23,0,110.6,13.31,17.34,94.4
"2010-09-07 01:12:30",138686,6.583,131.1,0.34,0.097,16.89,106.7374,16.52,17.4,11.21,0,110.6,13.31,17.33,93.1
"2010-09-07 01:13:00",138687,6.439,131.2,0.692,0.08,16.94,106.7365,16.52,17.41,11.24,0,110.6,13.31,17.33,93.2
"2010-09-07 01:13:30",138688,6.403,130.7,0.543,0.055,16.99,106.7388,16.53,17.4,11.27,0,110.6,13.31,17.34,92.7
"2010-09-07 01:14:00",138689,6.543,132,0.718,0.118,16.96,106.7458,16.54,17.41,11.26,0,110.6,13.31,17.35,94.0
"2010-09-07 01:14:30",138690,6.525,132.5,1.091,0.064,16.99,106.7472,16.55,17.41,11.28,0,110.6,13.31,17.36,94.5
"2010-09-07 01:15:00",138691,6.724,132.8,0.547,0.097,16.96,106.747,16.55,17.41,11.23,0,110.6,13.31,17.36,94.8
"2010-09-07 01:15:30",138692,6.718,133.2,0.516,0.154,16.96,106.7478,16.55,17.42,11.24,0,110.6,13.31,17.36,95.2
"2010-09-07 01:16:00",138693,7.029,133.2,1.155,0.067,16.88,106.7416,16.53,17.42,11.22,0,110.6,13.31,17.34,95.2
"2010-09-07 01:16:30",138694,7.16,133,0.58,0.085,16.89,106.7371,16.52,17.42,11.21,0,110.6,13.31,17.33,95.0
"2010-09-07 01:17:00",138695,7.039,133,0.747,0.174,16.93,106.734,16.51,17.41,11.16,0,110.6,13.31,17.32,95.0
"2010-09-07 01:17:30",138696,6.943,132.2,0.668,0.084,16.95,106.7309,16.51,17.41,11.2,0,110.6,13.31,17.32,94.2
"2010-09-07 01:18:00",138697,6.959,131,0.31,0.057,17.01,106.7303,16.5,17.42,11.14,0,110.6,13.31,17.31,93.0
"2010-09-07 01:18:30",138698,7.003,130.7,0.456,0.04,17,106.7309,16.51,17.42,11.11,0,110.6,13.31,17.32,92.7
"2010-09-07 01:19:00",138699,6.969,129.6,0.61,0.057,16.96,106.7275,16.5,17.43,11.06,0,110.5,13.31,17.31,91.6
"2010-09-07 01:19:30",138700,6.993,129.2,0.862,0.108,16.95,106.7275,16.5,17.43,11.06,0,110.5,13.31,17.31,91.2
"2010-09-07 01:20:00",138701,6.982,129.3,0.964,0.122,16.94,106.7275,16.5,17.41,11.09,0,110.5,13.31,17.31,91.3
"2010-09-07 01:20:30",138702,7.063,130.3,0.94,0.159,16.95,106.7275,16.5,17.42,11.1,0,110.5,13.31,17.31,92.3
"2010-09-07 01:21:00",138703,7.15,131.4,0.701,0.09,16.91,106.7275,16.5,17.42,11.1,0,110.5,13.31,17.31,93.4
"2010-09-07 01:21:30",138704,7.101,132.6,1.166,0.203,16.87,106.7275,16.5,17.41,11.12,0,110.5,13.31,17.31,94.6
"2010-09-07 01:22:00",138705,7.195,131.9,0.919,0.104,16.87,106.7275,16.5,17.4,11.14,0,110.5,13.31,17.31,93.9
"2010-09-07 01:22:30",138706,7.169,131.6,0.546,0.115,16.85,106.7275,16.5,17.4,11.17,0,110.5,13.31,17.31,93.6
"2010-09-07 01:23:00",138707,7.173,131.7,0.53,0.108,16.86,106.7272,16.5,17.4,11.24,0,110.5,13.32,17.31,93.7
"2010-09-07 01:23:30",138708,6.973,130.3,0.648,0.081,16.9,106.7207,16.48,17.38,11.27,0,110.5,13.32,17.29,92.3
"2010-09-07 01:24:00",138709,7.058,129.3,1.553,0.148,16.82,106.7047,16.44,17.38,11.31,0,110.5,13.32,17.25,91.3
"2010-09-07 01:24:30",138710,6.938,130.8,2.3,0.176,16.88,106.6957,16.42,17.38,11.32,0,110.5,13.32,17.22,92.8
"2010-09-07 01:25:00",138711,6.781,130.1,2.073,0.11,16.86,106.6937,16.41,17.36,11.36,0,110.5,13.32,17.22,92.1
"2010-09-07 01:25:30",138712,6.818,128.2,1.452,0.088,16.93,106.6937,16.41,17.36,11.39,0,110.5,13.32,17.22,90.2
"2010-09-07 01:26:00",138713,6.652,128.5,2.596,0.109,16.94,106.6937,16.41,17.35,11.39,0,110.5,13.32,17.22,90.5
"2010-09-07 01:26:30",138714,6.657,127.1,0.798,0.082,16.99,106.694,16.41,17.34,11.37,0,110.5,13.32,17.22,89.1
"2010-09-07 01:27:00",138715,6.521,126.5,0.66,0.09,16.94,106.6949,16.41,17.34,11.32,0,110.5,13.32,17.22,88.5
"2010-09-07 01:27:30",138716,6.413,127.1,0.796,0.086,16.91,106.6946,16.41,17.33,11.28,0,110.5,13.32,17.22,89.1
"2010-09-07 01:28:00",138717,6.356,125.4,0.554,0.071,16.89,106.6949,16.41,17.33,11.27,0,110.5,13.32,17.22,87.4
"2010-09-07 01:28:30",138718,6.358,125.8,0.561,0.054,16.87,106.6976,16.42,17.34,11.19,0,110.5,13.32,17.23,87.8
"2010-09-07 01:29:00",138719,6.289,125.6,0.523,0.068,16.88,106.697,16.42,17.35,11.13,0,110.5,13.32,17.23,87.6
"2010-09-07 01:29:30",138720,6.342,125.5,0.656,0.134,16.89,106.7015,16.43,17.33,11.12,0,110.5,13.32,17.24,87.5
"2010-09-07 01:30:00",138721,6.605,126.7,0.626,0.054,16.94,106.7015,16.43,17.33,11.07,0,110.5,13.32,17.24,88.7
"2010-09-07 01:30:30",138722,6.628,126.2,0.777,0.074,16.94,106.703,16.43,17.35,11.04,0,110.5,13.32,17.24,88.2
"2010-09-07 01:31:00",138723,6.632,125.6,0.393,0.104,16.94,106.7054,16.44,17.34,11.01,0,110.5,13.32,17.25,87.6
"2010-09-07 01:31:30",138724,6.608,126.7,0.843,0.134,16.95,106.7072,16.44,17.34,11,0,110.5,13.32,17.25,88.7
"2010-09-07 01:32:00",138725,6.711,126.9,1.084,0.131,16.95,106.7087,16.45,17.35,10.99,0,110.5,13.32,17.26,88.9
"2010-09-07 01:32:30",138726,6.772,129.4,1.068,0.071,16.88,106.7105,16.45,17.35,11.02,0,110.5,13.32,17.26,91.4
"2010-09-07 01:33:00",138727,6.919,130.8,0.643,0.083,16.93,106.7141,16.46,17.35,11.04,0,110.5,13.32,17.27,92.8
"2010-09-07 01:33:30",138728,6.887,131,1.086,0.111,16.87,106.716,16.47,17.33,11.04,0,110.5,13.32,17.28,93.0
"2010-09-07 01:34:00",138729,6.996,132.8,0.941,0.074,16.88,106.7175,16.47,17.34,11.05,0,110.5,13.31,17.28,94.8
"2010-09-07 01:34:30",138730,7.056,133.2,2.117,0.079,16.88,106.719,16.47,17.34,11.04,0,110.5,13.31,17.28,95.2
"2010-09-07 01:35:00",138731,7.168,134.7,2.492,0.114,16.88,106.7196,16.48,17.34,11.04,0,110.5,13.31,17.29,96.7
"2010-09-07 01:35:30",138732,7.125,134.4,1.214,0.18,16.91,106.7193,16.48,17.33,11.05,0,110.5,13.31,17.29,96.4
"2010-09-07 01:36:00",138733,7.081,137.4,2.232,0.211,16.9,106.7174,16.47,17.32,11.03,0,110.5,13.31,17.28,99.4
"2010-09-07 01:36:30",138734,7.068,136.1,1.514,0.198,16.93,106.7162,16.47,17.33,11.02,0,110.5,13.31,17.28,98.1
"2010-09-07 01:37:00",138735,7.13,137.9,2.61,0.19,16.89,106.7125,16.46,17.31,11.05,0,110.5,13.31,17.27,99.9
"2010-09-07 01:37:30",138736,7.118,138.4,1.667,0.122,16.9,106.7049,16.44,17.31,11.04,0,110.5,13.32,17.25,100.4
"2010-09-07 01:38:00",138737,6.852,138.2,1.244,0.121,16.92,106.6935,16.41,17.3,11.03,0,110.5,13.32,17.22,100.2
"2010-09-07 01:38:30",138738,7.094,138.4,1.419,0.061,16.85,106.6946,16.41,17.31,11.03,0,110.5,13.32,17.22,100.4
"2010-09-07 01:39:00",138739,7.14,138.3,0.749,0.148,16.84,106.6926,16.41,17.32,11.02,0,110.5,13.32,17.22,100.3
"2010-09-07 01:39:30",138740,7.103,141.2,1.239,0.07,16.96,106.6938,16.41,17.31,11.04,0,110.5,13.32,17.22,103.2
"2010-09-07 01:40:00",138741,6.89,142.9,1.195,0.08,16.9,106.6927,16.41,17.29,11.07,0,110.5,13.32,17.22,104.9
"2010-09-07 01:40:30",138742,7.036,141.3,2.175,0.106,16.96,106.6951,16.41,17.32,11.05,0,110.5,13.32,17.22,103.3
"2010-09-07 01:41:00",138743,6.892,141.3,1.64,0.101,16.86,106.6954,16.41,17.29,11.02,0,110.5,13.32,17.22,103.3
"2010-09-07 01:41:30",138744,6.84,141.9,1.753,0.095,16.91,106.696,16.42,17.3,11.01,0,110.5,13.32,17.23,103.9
"2010-09-07 01:42:00",138745,6.674,142.1,0.78,0.085,16.83,106.696,16.42,17.3,10.99,0,110.5,13.32,17.23,104.1
"2010-09-07 01:42:30",138746,6.905,142.9,1.473,0.127,16.94,106.696,16.42,17.31,11.03,0,110.5,13.32,17.23,104.9
"2010-09-07 01:43:00",138747,6.976,143.8,1.015,0.085,16.97,106.696,16.42,17.3,11.06,0,110.5,13.33,17.23,105.8
"2010-09-07 01:43:30",138748,6.877,144.1,1.529,0.148,16.94,106.696,16.42,17.31,11.02,0,110.5,13.32,17.23,106.1
"2010-09-07 01:44:00",138749,6.927,144.7,1.345,0.083,16.92,106.696,16.42,17.31,11.04,0,110.5,13.32,17.23,106.7
"2010-09-07 01:44:30",138750,6.961,147,1.053,0.111,16.83,106.696,16.42,17.29,11.06,0,110.5,13.32,17.23,109.0
"2010-09-07 01:45:00",138751,7.113,146.3,0.772,0.129,16.8,106.696,16.42,17.3,11.07,0,110.5,13.33,17.23,108.3
"2010-09-07 01:45:30",138752,7.232,147.4,0.901,0.082,16.92,106.696,16.42,17.28,11.09,0,110.5,13.33,17.23,109.4
"2010-09-07 01:46:00",138753,7.029,146.5,1.289,0.129,16.88,106.696,16.42,17.28,11.05,0,110.5,13.33,17.23,108.5
"2010-09-07 01:46:30",138754,6.99,145.5,1.14,0.089,16.86,106.696,16.42,17.29,11,0,110.5,13.33,17.23,107.5
"2010-09-07 01:47:00",138755,7.061,145.3,0.631,0.052,16.78,106.696,16.42,17.28,11.03,0,110.5,13.33,17.23,107.3
"2010-09-07 01:47:30",138756,7.025,144.4,0.687,0.117,16.83,106.696,16.42,17.28,11.03,0,110.5,13.33,17.23,106.4
"2010-09-07 01:48:00",138757,7.152,143.5,0.447,0.06,16.85,106.696,16.42,17.28,10.99,0,110.5,13.33,17.23,105.5
"2010-09-07 01:48:30",138758,7.123,143.3,0.614,0.062,16.86,106.6957,16.42,17.28,11,0,110.5,13.33,17.22,105.3